Weather History for Toledo, OH

Change the Weather History Date:

Monday, December 10, 2012

  Actual Average Record
Temperature  
Mean Temperature 38 °F 31 °F  
Max Temperature 42 °F 38 °F 67 °F (1971)
Min Temperature 33 °F 25 °F -6 °F (1958)
Degree Days  
Heating Degree Days 27 34  
Month to date heating degree days 222 321  
Since 1 July heating degree days 1559 1554  
Cooling Degree Days 0 0  
Month to date cooling degree days 0 0  
Year to date cooling degree days 998 793  
Moisture  
Dew Point 34 °F    
Average Humidity 83    
Maximum Humidity 96    
Minimum Humidity 70    
Precipitation  
Precipitation T in 0.09 in 0.89 in (1967)
Month to date precipitation 0.57 0.91  
Year to date precipitation 28.76 32.47  
Snow  
Snow 0.00 in 0.20 in - ()
Month to date snowfall 0.0 1.8  
Since 1 July snowfall T 3.9  
Snow Depth 0.00 in    
Sea Level Pressure  
Sea Level Pressure 29.70 in    
Wind  
Wind Speed 10 mph (West)    
Max Wind Speed 17 mph    
Max Gust Speed 22 mph    
Visibility 8 miles    
Events      
T = Trace of Precipitation, MM = Missing Value Source: NWS Daily Summary

Daily Weather History Graph

Daily Weather History Graph

Search for Another Location

Airport:

Trip Planner

Search our weather history database for the weather conditions in past years. The results will help you decide how hot, cold, wet, or windy it might be!

Date:

Astronomy

Dec. 10, 2012 Rise Set
Actual Time 7:51 AM EST 5:05 PM EST
Civil Twilight 7:20 AM EST 5:36 PM EST
Nautical Twilight 6:45 AM EST 6:11 PM EST
Astronomical Twilight 6:11 AM EST 6:44 PM EST
Moon 4:32 AM EST (12/10) 2:54 PM EST (12/10)
Length of Visible Light 10h 16m
Length of Day
9h 13m
Waning Crescent, 10% of the Moon is Illuminated
Dec 10
Waning Crescent
Dec 13
New
Dec 20
First Quarter
Dec 28
Full
Jan 4
Last Quarter

Hourly Weather History & Observations

Time (EST) Temp. Windchill Dew Point Humidity Pressure Visibility Wind Dir Wind Speed Gust Speed Precip Events Conditions
12:15 AM 41.0 °F - 39.2 °F 93% 29.64 in 0.8 mi Calm Calm - 0.00 in   Overcast
12:52 AM 42.1 °F 38.4 °F 39.9 °F 92% 29.65 in 0.8 mi West 5.8 mph - 0.00 in   Overcast
1:00 AM 42.8 °F 38.6 °F 41.0 °F 93% 29.64 in 0.8 mi West 6.9 mph - N/A   Overcast
1:08 AM 42.8 °F 38.6 °F 41.0 °F 93% 29.64 in 0.8 mi West 6.9 mph - N/A   Overcast
1:52 AM 42.1 °F 36.1 °F 41.0 °F 96% 29.65 in 0.8 mi West 10.4 mph - N/A   Overcast
2:01 AM 42.8 °F 37.0 °F 41.0 °F 93% 29.63 in 6.0 mi West 10.4 mph - N/A   Overcast
2:09 AM 42.8 °F 36.6 °F 41.0 °F 93% 29.63 in 6.0 mi West 11.5 mph - N/A   Overcast
2:52 AM 42.1 °F 36.6 °F 41.0 °F 96% 29.65 in 6.0 mi West 9.2 mph - N/A   Overcast
3:52 AM 42.1 °F 37.1 °F 41.0 °F 96% 29.66 in 6.0 mi West 8.1 mph - N/A   Overcast
4:52 AM 42.1 °F 36.6 °F 41.0 °F 96% 29.65 in 4.0 mi West 9.2 mph - N/A   Overcast
5:33 AM 42.8 °F 35.4 °F 39.2 °F 87% 29.63 in 7.0 mi West 15.0 mph - N/A   Overcast
5:52 AM 41.0 °F 32.2 °F 37.0 °F 86% 29.65 in 9.0 mi West 18.4 mph - N/A   Overcast
6:17 AM 39.2 °F 29.6 °F 37.4 °F 93% 29.64 in 8.0 mi West 19.6 mph 27.6 mph N/A   Overcast
6:52 AM 39.0 °F 30.3 °F 37.0 °F 93% 29.67 in 7.0 mi West 16.1 mph 20.7 mph N/A   Overcast
7:12 AM 39.2 °F 31.2 °F 35.6 °F 87% 29.66 in 9.0 mi West 13.8 mph - N/A   Overcast
7:52 AM 37.9 °F 30.0 °F 35.1 °F 89% 29.68 in 7.0 mi West 12.7 mph - N/A   Overcast
8:24 AM 37.4 °F 30.3 °F 35.6 °F 93% 29.68 in 7.0 mi West 10.4 mph - N/A   Overcast
8:52 AM 37.9 °F 30.5 °F 34.0 °F 86% 29.70 in 9.0 mi WSW 11.5 mph - N/A   Overcast
9:52 AM 37.9 °F 30.5 °F 34.0 °F 86% 29.70 in 10.0 mi WSW 11.5 mph - N/A   Overcast
10:36 AM 39.2 °F 32.0 °F 33.8 °F 81% 29.68 in 10.0 mi WSW 11.5 mph - N/A   Mostly Cloudy
10:52 AM 39.0 °F 31.4 °F 34.0 °F 82% 29.70 in 10.0 mi West 12.7 mph - N/A   Overcast
11:52 AM 39.0 °F 30.6 °F 33.1 °F 79% 29.70 in 10.0 mi West 15.0 mph - N/A   Overcast
12:03 PM 39.2 °F 32.0 °F 33.8 °F 81% 29.67 in 10.0 mi West 11.5 mph 21.9 mph N/A   Overcast
12:34 PM 39.2 °F 31.2 °F 32.0 °F 75% 29.68 in 10.0 mi West 13.8 mph - N/A   Overcast
12:52 PM 39.0 °F 31.4 °F 32.0 °F 76% 29.69 in - West 12.7 mph - N/A   Unknown
1:22 PM 39.2 °F 30.8 °F 32.0 °F 75% 29.66 in 10.0 mi West 15.0 mph - N/A   Overcast
1:52 PM 39.0 °F 32.3 °F 30.9 °F 73% 29.69 in 10.0 mi West 10.4 mph - N/A   Overcast
2:29 PM 39.2 °F 33.0 °F 30.2 °F 70% 29.68 in 10.0 mi West 9.2 mph - N/A   Overcast
2:49 PM 39.2 °F 32.5 °F 30.2 °F 70% 29.68 in 10.0 mi West 10.4 mph - N/A   Overcast
2:52 PM 39.0 °F 31.4 °F 30.9 °F 73% 29.69 in 10.0 mi West 12.7 mph - N/A   Overcast
3:52 PM 37.4 °F 29.3 °F 30.2 °F 75% 29.70 in 10.0 mi West 12.7 mph - N/A   Overcast
4:23 PM 37.4 °F 29.8 °F 30.2 °F 75% 29.70 in 10.0 mi West 11.5 mph - N/A   Overcast
4:44 PM 37.4 °F 30.8 °F 30.2 °F 75% 29.71 in 10.0 mi West 9.2 mph - N/A   Overcast
4:52 PM 37.0 °F 29.3 °F 30.9 °F 79% 29.73 in 10.0 mi West 11.5 mph - N/A   Overcast
5:27 PM 37.4 °F 29.8 °F 30.2 °F 75% 29.73 in 10.0 mi West 11.5 mph - N/A   Overcast
5:35 PM 37.4 °F 30.8 °F 30.2 °F 75% 29.73 in 10.0 mi West 9.2 mph - N/A   Overcast
5:52 PM 37.0 °F 31.0 °F 30.9 °F 79% 29.76 in 10.0 mi WNW 8.1 mph - N/A   Overcast
6:45 PM 35.6 °F 28.6 °F 28.4 °F 75% 29.77 in 10.0 mi North 9.2 mph - N/A   Overcast
6:52 PM 35.1 °F 27.4 °F 28.0 °F 76% 29.78 in 10.0 mi North 10.4 mph - N/A   Overcast
7:52 PM 34.0 °F - 27.0 °F 75% 29.82 in 10.0 mi Calm Calm - N/A   Overcast
8:52 PM 34.0 °F 31.0 °F 26.1 °F 73% 29.83 in 10.0 mi NW 3.5 mph - N/A   Overcast
9:52 PM 34.0 °F - 26.1 °F 73% 29.85 in 10.0 mi Calm Calm - N/A   Overcast
10:52 PM 33.1 °F 28.7 °F 26.1 °F 75% 29.87 in 10.0 mi West 4.6 mph - N/A   Overcast
11:52 PM 33.1 °F 28.7 °F 26.1 °F 75% 29.89 in 10.0 mi West 4.6 mph - N/A   Overcast